TimeEST,TemperatureF,Dew PointF,Humidity,Sea Level PressureIn,VisibilityMPH,Wind Direction,Wind SpeedMPH,Gust SpeedMPH,PrecipitationIn,Events,Conditions,WindDirDegrees,DateUTC
12:15 AM,37.4,36.0,95,29.58,7.0,ENE,5.8,-,N/A,,Overcast,70,2013-03-06 05:15:00
12:35 AM,37.4,36.0,95,29.56,4.0,NE,5.8,-,N/A,Rain,Light Rain,50,2013-03-06 05:35:00
12:55 AM,37.0,36.0,96,29.55,4.0,NE,5.8,-,N/A,,Overcast,50,2013-03-06 05:55:00
1:15 AM,37.0,36.0,96,29.53,2.5,NE,4.6,-,N/A,,Overcast,40,2013-03-06 06:15:00
1:55 AM,36.9,36.0,97,29.52,2.0,North,5.8,-,N/A,,Light Drizzle,350,2013-03-06 06:55:00
2:15 AM,36.5,35.6,97,29.51,2.5,NNW,6.9,-,N/A,Rain,Rain,340,2013-03-06 07:15:00
2:35 AM,36.5,35.6,97,29.51,2.0,NW,6.9,-,0.01,,Drizzle,320,2013-03-06 07:35:00
2:55 AM,36.0,35.1,97,29.51,2.5,NNW,8.1,-,0.03,Rain,Rain,330,2013-03-06 07:55:00
3:15 AM,36.0,35.1,97,29.51,4.0,NW,5.8,-,0.01,Rain,Rain,310,2013-03-06 08:15:00
3:35 AM,36.0,35.1,97,29.51,7.0,NW,8.1,-,0.01,,Light Drizzle,310,2013-03-06 08:35:00
3:55 AM,36.1,35.2,97,29.52,7.0,WNW,8.1,-,0.01,Rain,Light Rain,300,2013-03-06 08:55:00
4:15 AM,36.0,35.1,97,29.53,10.0,WNW,6.9,-,N/A,,Drizzle,290,2013-03-06 09:15:00
4:35 AM,35.8,34.7,96,29.54,10.0,WNW,10.4,19.6,N/A,,Light Drizzle,290,2013-03-06 09:35:00
4:55 AM,34.7,33.4,95,29.55,7.0,NW,10.4,18.4,N/A,,Drizzle,310,2013-03-06 09:55:00
5:15 AM,34.2,32.4,93,29.55,10.0,NW,8.1,-,N/A,Rain,Light Rain,310,2013-03-06 10:15:00
5:35 AM,34.0,32.0,92,29.56,10.0,WNW,8.1,17.3,N/A,,Overcast,300,2013-03-06 10:35:00
5:55 AM,33.8,32.0,93,29.56,5.0,WNW,12.7,17.3,N/A,Snow,Light Snow,290,2013-03-06 10:55:00
6:55 AM,34.2,32.2,92,29.56,10.0,WNW,9.2,24.2,N/A,Rain,Light Rain,290,2013-03-06 11:55:00
7:15 AM,34.0,32.0,92,29.57,7.0,WNW,12.7,19.6,N/A,Rain,Light Rain,300,2013-03-06 12:15:00
7:35 AM,33.8,32.0,93,29.58,2.0,WNW,6.9,16.1,N/A,Snow,Light Snow,290,2013-03-06 12:35:00
7:55 AM,34.2,32.5,94,29.58,10.0,West,8.1,17.3,N/A,Rain,Light Rain,280,2013-03-06 12:55:00
8:15 AM,34.7,32.0,90,29.58,5.0,West,17.3,27.6,N/A,Rain,Light Rain,280,2013-03-06 13:15:00
8:35 AM,34.5,32.0,90,29.59,2.5,West,11.5,21.9,0.01,Snow,Light Snow,280,2013-03-06 13:35:00
8:55 AM,33.3,31.6,94,29.60,1.2,West,12.7,24.2,0.01,Snow,Light Snow,280,2013-03-06 13:55:00
9:15 AM,33.1,31.8,95,29.60,1.5,West,15.0,19.6,N/A,Snow,Light Snow,280,2013-03-06 14:15:00
9:35 AM,33.1,31.8,95,29.60,0.8,WNW,13.8,20.7,N/A,Snow,Light Snow,290,2013-03-06 14:35:00
9:55 AM,32.9,31.6,95,29.61,0.8,West,12.7,23.0,N/A,Snow,Light Snow,270,2013-03-06 14:55:00
10:15 AM,33.3,31.8,94,29.60,2.0,WNW,13.8,24.2,N/A,Snow,Light Snow,290,2013-03-06 15:15:00
10:35 AM,33.8,31.8,92,29.61,2.0,West,13.8,27.6,N/A,Snow,Light Snow,280,2013-03-06 15:35:00
10:55 AM,34.7,32.0,90,29.61,5.0,West,16.1,26.5,N/A,Snow,Light Snow,280,2013-03-06 15:55:00
11:15 AM,35.1,31.3,86,29.62,10.0,West,11.5,26.5,N/A,,Overcast,280,2013-03-06 16:15:00
11:35 AM,36.0,30.6,81,29.62,10.0,WNW,13.8,27.6,N/A,,Overcast,290,2013-03-06 16:35:00
11:55 AM,36.7,30.4,78,29.63,10.0,WNW,15.0,23.0,N/A,,Overcast,290,2013-03-06 16:55:00
12:15 PM,37.8,30.0,74,29.63,10.0,WNW,13.8,28.8,N/A,,Overcast,290,2013-03-06 17:15:00
12:35 PM,38.3,30.6,74,29.64,10.0,WNW,16.1,32.2,N/A,,Overcast,300,2013-03-06 17:35:00
12:55 PM,37.8,32.0,80,29.64,7.0,WNW,16.1,27.6,N/A,Rain,Light Rain,290,2013-03-06 17:55:00
1:15 PM,36.7,32.5,85,29.65,4.0,WNW,18.4,28.8,N/A,Rain,Light Rain,290,2013-03-06 18:15:00
1:35 PM,36.9,33.4,87,29.65,5.0,WNW,11.5,27.6,N/A,,Drizzle,300,2013-03-06 18:35:00
1:55 PM,37.4,33.6,86,29.66,5.0,NW,18.4,34.5,N/A,,Drizzle,310,2013-03-06 18:55:00
2:15 PM,38.3,34.5,86,29.67,7.0,NW,13.8,34.5,N/A,,Light Drizzle,310,2013-03-06 19:15:00
2:35 PM,39.7,34.7,82,29.68,10.0,NW,19.6,26.5,N/A,,Overcast,320,2013-03-06 19:35:00
2:55 PM,40.1,34.2,79,29.70,10.0,NW,23.0,31.1,N/A,,Light Drizzle,320,2013-03-06 19:55:00
3:15 PM,41.2,34.2,76,29.71,10.0,NW,13.8,25.3,N/A,,Light Drizzle,320,2013-03-06 20:15:00
3:35 PM,41.0,33.3,74,29.73,10.0,NNW,16.1,28.8,N/A,Rain,Rain,330,2013-03-06 20:35:00
3:55 PM,40.1,34.0,79,29.75,7.0,NNW,17.3,36.8,0.01,Rain,Light Rain,330,2013-03-06 20:55:00
4:15 PM,40.1,34.3,80,29.77,10.0,NNW,21.9,27.6,N/A,Rain,Light Rain,330,2013-03-06 21:15:00
4:35 PM,40.5,33.8,77,29.79,10.0,NW,17.3,29.9,0.01,Rain,Light Rain,320,2013-03-06 21:35:00
4:55 PM,41.0,34.0,76,29.81,10.0,NW,11.5,23.0,0.01,,Light Drizzle,320,2013-03-06 21:55:00
5:15 PM,40.8,34.2,77,29.83,7.0,NW,16.1,25.3,N/A,,Light Drizzle,320,2013-03-06 22:15:00
5:35 PM,41.0,33.3,74,29.85,7.0,NNW,17.3,28.8,N/A,Rain,Light Rain,340,2013-03-06 22:35:00
5:55 PM,40.6,32.9,74,29.87,10.0,NNW,15.0,24.2,N/A,Rain,Light Rain,340,2013-03-06 22:55:00
6:15 PM,40.5,32.9,74,29.89,10.0,NNW,13.8,25.3,N/A,Rain,Light Rain,330,2013-03-06 23:15:00
6:35 PM,40.3,32.5,74,29.90,10.0,NNW,13.8,17.3,N/A,Rain,Light Rain,340,2013-03-06 23:35:00
6:55 PM,41.0,31.8,70,29.92,10.0,NNW,17.3,25.3,N/A,,Overcast,340,2013-03-06 23:55:00
7:15 PM,41.5,30.6,65,29.94,10.0,NNW,10.4,25.3,N/A,,Overcast,340,2013-03-07 00:15:00
7:35 PM,41.4,30.2,65,29.94,10.0,NNW,10.4,25.3,N/A,,Overcast,340,2013-03-07 00:35:00
7:55 PM,41.2,29.8,64,29.95,10.0,NNW,16.1,27.6,N/A,,Overcast,340,2013-03-07 00:55:00
8:15 PM,41.0,29.7,64,29.97,10.0,NNW,12.7,28.8,N/A,,Overcast,330,2013-03-07 01:15:00
8:35 PM,40.8,29.8,65,29.97,10.0,North,12.7,26.5,N/A,,Overcast,350,2013-03-07 01:35:00
8:55 PM,40.6,29.3,64,29.97,10.0,NNW,11.5,19.6,N/A,,Overcast,330,2013-03-07 01:55:00
9:15 PM,39.9,29.1,65,29.97,10.0,NNW,9.2,17.3,N/A,,Mostly Cloudy,340,2013-03-07 02:15:00
9:35 PM,39.0,28.9,67,29.98,10.0,NW,10.4,-,N/A,,Scattered Clouds,310,2013-03-07 02:35:00
9:55 PM,38.7,28.8,68,29.98,10.0,NW,6.9,-,N/A,,Clear,310,2013-03-07 02:55:00
10:15 PM,38.3,29.1,70,29.99,10.0,NW,6.9,-,N/A,,Clear,310,2013-03-07 03:15:00
10:35 PM,38.1,29.5,71,30.00,10.0,NW,10.4,17.3,N/A,,Clear,310,2013-03-07 03:35:00
10:55 PM,37.4,29.3,73,30.00,10.0,NW,6.9,-,N/A,,Clear,320,2013-03-07 03:55:00
11:15 PM,36.9,29.1,74,30.00,10.0,NW,6.9,-,N/A,,Clear,310,2013-03-07 04:15:00
11:35 PM,36.9,28.8,72,30.01,10.0,WNW,5.8,-,N/A,,Clear,300,2013-03-07 04:35:00
11:55 PM,36.7,28.6,72,30.01,10.0,NW,12.7,17.3,N/A,,Clear,310,2013-03-07 04:55:00